Time,TemperatureF,DewpointF,PressureIn,WindDirection,WindDirectionDegrees,WindSpeedMPH,WindSpeedGustMPH,Humidity,HourlyPrecipIn,Conditions,Clouds,dailyrainin,SoftwareType,DateUTC
2013-10-27 00:00:00,38.1,35.7,29.86,NW,315,10.0,14.0,91,0.00,,---,0.11,VWS V15.00,2013-10-27 04:00:00,
2013-10-27 00:01:00,38.0,35.6,29.86,NW,311,10.0,14.0,91,0.00,,---,0.11,VWS V14.01,2013-10-27 04:01:00,
2013-10-27 00:06:00,37.9,35.5,29.86,NW,310,10.0,11.0,91,0.00,,---,0.00,VWS V14.01,2013-10-27 04:06:00,
2013-10-27 00:11:00,37.9,35.5,29.86,WNW,302,8.0,11.0,91,0.00,,---,0.00,VWS V14.01,2013-10-27 04:11:00,
2013-10-27 00:17:00,37.9,35.5,29.86,NW,315,8.0,11.0,91,0.00,,---,0.00,VWS V14.01,2013-10-27 04:17:00,
2013-10-27 00:21:00,37.9,35.2,29.86,NW,320,8.0,11.0,90,0.00,,---,0.00,VWS V14.01,2013-10-27 04:21:00,
2013-10-27 00:27:00,37.8,34.9,29.86,NW,320,9.0,11.0,89,0.00,,---,0.00,VWS V14.01,2013-10-27 04:27:00,
2013-10-27 00:30:00,37.8,34.6,29.86,NW,308,8.0,11.0,88,0.00,,---,0.00,VWS V15.00,2013-10-27 04:30:00,
2013-10-27 00:32:00,37.7,34.5,29.86,NW,315,8.0,8.0,88,0.00,,---,0.00,VWS V14.01,2013-10-27 04:32:00,
2013-10-27 00:37:00,37.8,34.6,29.86,NW,315,9.0,10.0,88,0.00,,---,0.00,VWS V14.01,2013-10-27 04:37:00,
2013-10-27 00:42:00,37.9,34.4,29.86,NW,315,8.0,10.0,87,0.00,,---,0.00,VWS V14.01,2013-10-27 04:42:00,
2013-10-27 00:47:00,37.9,34.4,29.86,NW,310,9.0,10.0,87,0.00,,---,0.00,VWS V14.01,2013-10-27 04:47:00,
2013-10-27 00:52:00,37.8,34.3,29.86,NW,315,9.0,10.0,87,0.00,,---,0.00,VWS V14.01,2013-10-27 04:52:00,
2013-10-27 00:57:00,37.8,34.3,29.86,NW,320,5.0,10.0,87,0.00,,---,0.00,VWS V14.01,2013-10-27 04:57:00,
2013-10-27 01:00:00,37.7,34.2,29.86,NW,325,9.0,10.0,87,0.00,,---,0.00,VWS V15.00,2013-10-27 05:00:00,
2013-10-27 01:02:00,37.7,34.2,29.86,NW,325,8.0,9.0,87,0.00,,---,0.00,VWS V14.01,2013-10-27 05:02:00,
2013-10-27 01:07:00,37.6,34.1,29.86,NW,315,9.0,10.0,87,0.00,,---,0.00,VWS V14.01,2013-10-27 05:07:00,
2013-10-27 01:12:00,37.5,33.4,29.86,NW,320,10.0,11.0,85,0.00,,---,0.00,VWS V14.01,2013-10-27 05:12:00,
2013-10-27 01:17:00,37.4,33.3,29.86,NNW,331,8.0,12.0,85,0.00,,---,0.00,VWS V14.01,2013-10-27 05:17:00,
2013-10-27 01:22:00,37.2,33.1,29.86,NW,320,8.0,12.0,85,0.00,,---,0.00,VWS V14.01,2013-10-27 05:22:00,
2013-10-27 01:27:00,37.4,33.6,29.87,NW,320,9.0,12.0,86,0.00,,---,0.00,VWS V14.01,2013-10-27 05:27:00,
2013-10-27 01:30:00,37.4,33.9,29.87,NW,315,10.0,12.0,87,0.00,,---,0.00,VWS V15.00,2013-10-27 05:30:00,
2013-10-27 01:32:00,37.4,33.6,29.87,NW,315,10.0,10.0,86,0.00,,---,0.00,VWS V14.01,2013-10-27 05:32:00,
2013-10-27 01:37:00,37.4,33.3,29.87,NW,310,9.0,10.0,85,0.00,,---,0.00,VWS V14.01,2013-10-27 05:37:00,
2013-10-27 01:42:00,37.3,33.2,29.87,NW,325,7.0,10.0,85,0.00,,---,0.00,VWS V14.01,2013-10-27 05:42:00,
2013-10-27 01:47:00,37.4,33.0,29.87,NNW,342,8.0,11.0,84,0.00,,---,0.00,VWS V14.01,2013-10-27 05:47:00,
2013-10-27 01:52:00,37.4,33.6,29.86,NW,320,7.0,11.0,86,0.00,,---,0.00,VWS V14.01,2013-10-27 05:52:00,
2013-10-27 01:57:00,37.5,34.0,29.87,NW,315,8.0,11.0,87,0.00,,---,0.00,VWS V14.01,2013-10-27 05:57:00,
2013-10-27 02:00:00,37.5,33.4,29.87,NW,311,6.0,11.0,85,0.00,,---,0.00,VWS V15.00,2013-10-27 06:00:00,
2013-10-27 02:02:00,37.5,33.4,29.87,NW,311,7.0,8.0,85,0.00,,---,0.00,VWS V14.01,2013-10-27 06:02:00,
2013-10-27 02:07:00,37.5,33.1,29.87,NW,315,7.0,8.0,84,0.00,,---,0.00,VWS V14.01,2013-10-27 06:07:00,
2013-10-27 02:12:00,37.6,33.5,29.87,NW,325,7.0,9.0,85,0.00,,---,0.00,VWS V14.01,2013-10-27 06:12:00,
2013-10-27 02:17:00,37.7,33.9,29.87,WNW,299,8.0,10.0,86,0.00,,---,0.00,VWS V14.01,2013-10-27 06:17:00,
2013-10-27 02:22:00,37.5,33.7,29.87,WNW,297,9.0,10.0,86,0.00,,---,0.00,VWS V14.01,2013-10-27 06:22:00,
2013-10-27 02:27:00,37.5,33.7,29.87,WNW,292,6.0,10.0,86,0.00,,---,0.00,VWS V14.01,2013-10-27 06:27:00,
2013-10-27 02:30:00,37.4,33.6,29.87,WNW,291,7.0,10.0,86,0.00,,---,0.00,VWS V15.00,2013-10-27 06:30:00,
2013-10-27 02:32:00,37.4,33.6,29.87,WNW,289,8.0,8.0,86,0.00,,---,0.00,VWS V14.01,2013-10-27 06:32:00,
2013-10-27 02:37:00,37.3,34.6,29.87,WNW,293,9.0,9.0,90,0.00,,---,0.00,VWS V14.01,2013-10-27 06:37:00,
2013-10-27 02:42:00,37.0,34.3,29.88,WNW,295,6.0,10.0,90,0.00,,---,0.00,VWS V14.01,2013-10-27 06:42:00,
2013-10-27 02:47:00,36.9,34.2,29.88,WNW,289,9.0,10.0,90,0.00,,---,0.00,VWS V14.01,2013-10-27 06:47:00,
2013-10-27 02:52:00,36.7,34.3,29.88,WNW,300,9.0,11.0,91,0.00,,---,0.00,VWS V14.01,2013-10-27 06:52:00,
2013-10-27 02:57:00,36.6,34.2,29.88,WNW,297,8.0,11.0,91,0.00,,---,0.00,VWS V14.01,2013-10-27 06:57:00,
2013-10-27 03:00:00,36.7,34.3,29.88,WNW,298,8.0,11.0,91,0.00,,---,0.00,VWS V15.00,2013-10-27 07:00:00,
2013-10-27 03:02:00,36.7,34.3,29.88,WNW,293,9.0,9.0,91,0.00,,---,0.00,VWS V14.01,2013-10-27 07:02:00,
2013-10-27 03:07:00,36.6,34.5,29.88,WNW,298,8.0,10.0,92,0.00,,---,0.00,VWS V14.01,2013-10-27 07:07:00,
2013-10-27 03:12:00,36.5,34.4,29.88,WNW,297,7.0,11.0,92,0.00,,---,0.00,VWS V14.01,2013-10-27 07:12:00,
2013-10-27 03:17:00,36.5,34.1,29.88,WNW,293,8.0,11.0,91,0.00,,---,0.00,VWS V14.01,2013-10-27 07:17:00,
2013-10-27 03:22:00,36.5,34.4,29.87,WNW,293,5.0,11.0,92,0.00,,---,0.00,VWS V14.01,2013-10-27 07:22:00,
2013-10-27 03:27:00,36.6,34.5,29.87,WNW,297,6.0,11.0,92,0.00,,---,0.00,VWS V14.01,2013-10-27 07:27:00,
2013-10-27 03:30:00,36.7,34.6,29.87,WNW,293,6.0,11.0,92,0.00,,---,0.00,VWS V15.00,2013-10-27 07:30:00,
2013-10-27 03:32:00,36.7,34.6,29.87,WNW,293,7.0,7.0,92,0.00,,---,0.00,VWS V14.01,2013-10-27 07:32:00,
2013-10-27 03:37:00,36.6,34.5,29.87,WNW,293,5.0,9.0,92,0.00,,---,0.00,VWS V14.01,2013-10-27 07:37:00,
2013-10-27 03:42:00,36.6,34.5,29.87,WNW,286,7.0,9.0,92,0.00,,---,0.00,VWS V14.01,2013-10-27 07:42:00,
2013-10-27 03:47:00,36.5,34.4,29.87,WNW,297,7.0,9.0,92,0.00,,---,0.00,VWS V14.01,2013-10-27 07:47:00,
2013-10-27 03:52:00,36.5,34.4,29.88,WNW,293,8.0,9.0,92,0.00,,---,0.00,VWS V14.01,2013-10-27 07:52:00,
2013-10-27 03:57:00,36.4,34.6,29.88,WNW,295,6.0,9.0,93,0.00,,---,0.00,VWS V14.01,2013-10-27 07:57:00,
2013-10-27 04:00:00,36.4,34.6,29.88,WNW,291,7.0,9.0,93,0.00,,---,0.00,VWS V15.00,2013-10-27 08:00:00,
2013-10-27 04:02:00,36.5,34.7,29.88,WNW,293,7.0,8.0,93,0.00,,---,0.00,VWS V14.01,2013-10-27 08:02:00,
2013-10-27 04:07:00,36.5,34.7,29.88,WNW,295,6.0,8.0,93,0.00,,---,0.00,VWS V14.01,2013-10-27 08:07:00,
2013-10-27 04:12:00,36.5,34.7,29.88,NW,308,6.0,9.0,93,0.00,,---,0.00,VWS V14.01,2013-10-27 08:12:00,
2013-10-27 04:17:00,36.5,34.7,29.87,WNW,302,6.0,9.0,93,0.00,,---,0.00,VWS V14.01,2013-10-27 08:17:00,
2013-10-27 04:22:00,36.5,34.7,29.87,WNW,296,6.0,9.0,93,0.00,,---,0.00,VWS V14.01,2013-10-27 08:22:00,
2013-10-27 04:27:00,36.5,34.7,29.87,WNW,289,7.0,9.0,93,0.00,,---,0.00,VWS V14.01,2013-10-27 08:27:00,
2013-10-27 04:30:00,36.5,34.7,29.87,WNW,289,8.0,9.0,93,0.00,,---,0.00,VWS V15.00,2013-10-27 08:30:00,
2013-10-27 04:32:00,36.5,34.7,29.87,WNW,289,7.0,8.0,93,0.00,,---,0.00,VWS V14.01,2013-10-27 08:32:00,
2013-10-27 04:37:00,36.5,34.4,29.87,WNW,286,8.0,9.0,92,0.00,,---,0.00,VWS V14.01,2013-10-27 08:37:00,
2013-10-27 04:42:00,36.5,34.4,29.87,WNW,286,7.0,9.0,92,0.00,,---,0.00,VWS V14.01,2013-10-27 08:42:00,
2013-10-27 04:48:00,36.6,34.5,29.87,WNW,287,7.0,9.0,92,0.00,,---,0.00,VWS V14.01,2013-10-27 08:48:00,
2013-10-27 04:53:00,36.6,34.5,29.87,WNW,287,7.0,9.0,92,0.00,,---,0.00,VWS V14.01,2013-10-27 08:53:00,
2013-10-27 04:58:00,36.7,34.6,29.87,West,275,7.0,9.0,92,0.00,,---,0.00,VWS V14.01,2013-10-27 08:58:00,
2013-10-27 05:00:00,36.7,34.9,29.87,West,263,7.0,9.0,93,0.00,,---,0.00,VWS V15.00,2013-10-27 09:00:00,
2013-10-27 05:03:00,36.6,34.8,29.87,West,263,6.0,7.0,93,0.00,,---,0.00,VWS V14.01,2013-10-27 09:03:00,
2013-10-27 05:08:00,36.6,34.8,29.87,West,261,6.0,8.0,93,0.00,,---,0.00,VWS V14.01,2013-10-27 09:08:00,
2013-10-27 05:13:00,36.5,34.9,29.87,West,266,9.0,10.0,94,0.00,,---,0.00,VWS V14.01,2013-10-27 09:13:00,
2013-10-27 05:18:00,36.7,35.1,29.88,West,277,8.0,11.0,94,0.00,,---,0.00,VWS V14.01,2013-10-27 09:18:00,
2013-10-27 05:23:00,36.7,34.9,29.88,West,280,11.0,12.0,93,0.00,,---,0.00,VWS V14.01,2013-10-27 09:23:00,
2013-10-27 05:28:00,36.4,34.6,29.88,SW,229,11.0,12.0,93,0.00,,---,0.00,VWS V14.01,2013-10-27 09:28:00,
2013-10-27 05:30:00,36.2,34.4,29.88,SW,229,10.0,13.0,93,0.00,,---,0.00,VWS V15.00,2013-10-27 09:30:00,
2013-10-27 05:33:00,36.2,34.4,29.88,SW,229,10.0,11.0,93,0.00,,---,0.00,VWS V14.01,2013-10-27 09:33:00,
2013-10-27 05:38:00,36.0,34.2,29.88,SW,232,9.0,12.0,93,0.00,,---,0.00,VWS V14.01,2013-10-27 09:38:00,
2013-10-27 05:43:00,36.1,34.5,29.88,SW,229,10.0,12.0,94,0.00,,---,0.00,VWS V14.01,2013-10-27 09:43:00,
2013-10-27 05:48:00,36.1,34.3,29.88,SW,236,9.0,12.0,93,0.00,,---,0.00,VWS V14.01,2013-10-27 09:48:00,
2013-10-27 05:53:00,36.2,34.4,29.88,SW,223,8.0,12.0,93,0.00,,---,0.00,VWS V14.01,2013-10-27 09:53:00,
2013-10-27 05:58:00,36.3,34.5,29.88,SW,234,9.0,12.0,93,0.00,,---,0.00,VWS V14.01,2013-10-27 09:58:00,
2013-10-27 06:00:00,36.2,34.1,29.88,SSW,195,6.0,12.0,92,0.00,,---,0.00,VWS V15.00,2013-10-27 10:00:00,
2013-10-27 06:03:00,36.3,34.2,29.88,SW,225,9.0,10.0,92,0.00,,---,0.00,VWS V14.01,2013-10-27 10:03:00,
2013-10-27 06:08:00,36.4,34.6,29.88,SW,234,3.0,10.0,93,0.00,,---,0.00,VWS V14.01,2013-10-27 10:08:00,
2013-10-27 06:13:00,36.4,34.6,29.89,SW,227,5.0,10.0,93,0.00,,---,0.00,VWS V14.01,2013-10-27 10:13:00,
2013-10-27 06:18:00,36.2,34.4,29.89,SW,217,5.0,10.0,93,0.00,,---,0.00,VWS V14.01,2013-10-27 10:18:00,
2013-10-27 06:23:00,36.1,34.3,29.88,SSW,212,3.0,10.0,93,0.00,,---,0.00,VWS V14.01,2013-10-27 10:23:00,
2013-10-27 06:28:00,36.1,34.3,29.88,SW,220,4.0,10.0,93,0.00,,---,0.00,VWS V14.01,2013-10-27 10:28:00,
2013-10-27 06:30:00,36.0,34.2,29.89,SW,219,4.0,10.0,93,0.00,,---,0.00,VWS V15.00,2013-10-27 10:30:00,
2013-10-27 06:33:00,36.1,34.3,29.89,SW,217,3.0,5.0,93,0.00,,---,0.00,VWS V14.01,2013-10-27 10:33:00,
2013-10-27 06:38:00,36.3,34.5,29.89,SW,215,6.0,7.0,93,0.00,,---,0.00,VWS V14.01,2013-10-27 10:38:00,
2013-10-27 06:43:00,36.5,34.7,29.89,SSW,208,4.0,8.0,93,0.00,,---,0.00,VWS V14.01,2013-10-27 10:43:00,
2013-10-27 06:48:00,36.6,34.5,29.89,SW,234,5.0,8.0,92,0.00,,---,0.00,VWS V14.01,2013-10-27 10:48:00,
2013-10-27 06:53:00,36.7,34.6,29.89,SW,214,6.0,11.0,92,0.00,,---,0.00,VWS V14.01,2013-10-27 10:53:00,
2013-10-27 06:58:00,36.7,34.6,29.89,SW,229,8.0,11.0,92,0.00,,---,0.00,VWS V14.01,2013-10-27 10:58:00,
2013-10-27 07:00:00,36.7,34.6,29.89,SW,220,7.0,11.0,92,0.00,,---,0.00,VWS V15.00,2013-10-27 11:00:00,
2013-10-27 07:03:00,36.7,34.6,29.89,SW,232,8.0,10.0,92,0.00,,---,0.00,VWS V14.01,2013-10-27 11:03:00,
2013-10-27 07:08:00,36.6,34.5,29.89,SW,227,8.0,10.0,92,0.00,,---,0.00,VWS V14.01,2013-10-27 11:08:00,
2013-10-27 07:13:00,36.6,34.5,29.89,SW,223,7.0,10.0,92,0.00,,---,0.00,VWS V14.01,2013-10-27 11:13:00,
2013-10-27 07:18:00,36.6,34.5,29.89,SSW,208,7.0,10.0,92,0.00,,---,0.00,VWS V14.01,2013-10-27 11:18:00,
2013-10-27 07:23:00,36.4,34.0,29.89,SW,219,3.0,10.0,91,0.00,,---,0.00,VWS V14.01,2013-10-27 11:23:00,
2013-10-27 07:28:00,36.4,34.0,29.89,SW,231,7.0,10.0,91,0.00,,---,0.00,VWS V14.01,2013-10-27 11:28:00,
2013-10-27 07:30:00,36.4,34.0,29.89,WSW,239,6.0,10.0,91,0.00,,---,0.00,VWS V15.00,2013-10-27 11:30:00,
2013-10-27 07:33:00,36.4,34.3,29.89,SW,218,6.0,8.0,92,0.00,,---,0.00,VWS V14.01,2013-10-27 11:33:00,
2013-10-27 07:38:00,36.3,33.9,29.89,SW,232,8.0,9.0,91,0.00,,---,0.00,VWS V14.01,2013-10-27 11:38:00,
2013-10-27 07:43:00,36.2,33.8,29.89,SW,227,5.0,9.0,91,0.00,,---,0.00,VWS V14.01,2013-10-27 11:43:00,
2013-10-27 07:48:00,36.1,33.5,29.88,SW,217,5.0,11.0,90,0.00,,---,0.00,VWS V14.01,2013-10-27 11:48:00,
2013-10-27 07:53:00,36.2,33.6,29.89,SW,219,9.0,11.0,90,0.00,,---,0.00,VWS V14.01,2013-10-27 11:53:00,
2013-10-27 07:58:00,36.2,33.3,29.89,SW,229,7.0,11.0,89,0.00,,---,0.00,VWS V14.01,2013-10-27 11:58:00,
2013-10-27 08:03:00,36.0,33.1,29.89,SW,218,6.0,8.0,89,0.00,,---,0.00,VWS V14.01,2013-10-27 12:03:00,
2013-10-27 08:08:00,35.7,32.8,29.89,SW,216,7.0,8.0,89,0.00,,---,0.00,VWS V14.01,2013-10-27 12:08:00,
2013-10-27 08:13:00,35.6,32.7,29.89,SW,223,7.0,9.0,89,0.00,,---,0.00,VWS V14.01,2013-10-27 12:13:00,
2013-10-27 08:18:00,35.6,33.0,29.89,SSW,204,3.0,9.0,90,0.00,,---,0.00,VWS V14.01,2013-10-27 12:18:00,
2013-10-27 08:24:00,35.6,32.7,29.90,SSW,193,4.0,9.0,89,0.00,,---,0.00,VWS V14.01,2013-10-27 12:24:00,
2013-10-27 08:29:00,35.6,33.0,29.89,SSW,213,4.0,9.0,90,0.00,,---,0.00,VWS V14.01,2013-10-27 12:29:00,
2013-10-27 08:30:00,35.6,32.7,29.90,SSW,198,4.0,9.0,89,0.00,,---,0.00,VWS V15.00,2013-10-27 12:30:00,
2013-10-27 08:33:00,35.6,32.7,29.89,SSW,210,3.0,6.0,89,0.00,,---,0.00,VWS V14.01,2013-10-27 12:33:00,
2013-10-27 08:38:00,35.7,33.1,29.89,SSW,198,4.0,6.0,90,0.00,,---,0.00,VWS V14.01,2013-10-27 12:38:00,
2013-10-27 08:43:00,35.8,32.9,29.89,SSW,202,3.0,6.0,89,0.00,,---,0.00,VWS V14.01,2013-10-27 12:43:00,
2013-10-27 08:48:00,36.0,33.1,29.89,SSW,208,5.0,7.0,89,0.00,,---,0.00,VWS V14.01,2013-10-27 12:48:00,
2013-10-27 08:53:00,36.2,33.3,29.89,SSW,206,6.0,7.0,89,0.00,,---,0.00,VWS V14.01,2013-10-27 12:53:00,
2013-10-27 08:58:00,36.3,33.1,29.90,SSW,203,5.0,7.0,88,0.00,,---,0.00,VWS V14.01,2013-10-27 12:58:00,
2013-10-27 09:00:00,36.5,33.3,29.90,SSW,210,9.0,9.0,88,0.00,,---,0.00,VWS V15.00,2013-10-27 13:00:00,
2013-10-27 09:03:00,36.5,33.3,29.90,SW,215,8.0,9.0,88,0.00,,---,0.00,VWS V14.01,2013-10-27 13:03:00,
2013-10-27 09:08:00,36.7,33.5,29.90,SW,225,3.0,11.0,88,0.00,,---,0.00,VWS V14.01,2013-10-27 13:08:00,
2013-10-27 09:13:00,36.9,33.4,29.90,South,182,3.0,11.0,87,0.00,,---,0.00,VWS V14.01,2013-10-27 13:13:00,
2013-10-27 09:18:00,37.2,34.0,29.90,SSW,202,5.0,11.0,88,0.00,,---,0.00,VWS V14.01,2013-10-27 13:18:00,
2013-10-27 09:23:00,37.4,33.9,29.90,SW,222,2.0,11.0,87,0.00,,---,0.00,VWS V14.01,2013-10-27 13:23:00,
2013-10-27 09:28:00,37.5,34.3,29.90,SSW,202,2.0,11.0,88,0.00,,---,0.00,VWS V14.01,2013-10-27 13:28:00,
2013-10-27 09:30:00,37.6,34.4,29.91,SSW,193,3.0,11.0,88,0.00,,---,0.00,VWS V15.00,2013-10-27 13:30:00,
2013-10-27 09:33:00,37.4,34.2,29.91,WSW,254,4.0,6.0,88,0.00,,---,0.00,VWS V14.01,2013-10-27 13:33:00,
2013-10-27 09:38:00,37.5,34.0,29.91,WSW,256,8.0,8.0,87,0.00,,---,0.00,VWS V14.01,2013-10-27 13:38:00,
2013-10-27 09:43:00,37.8,33.7,29.91,West,261,6.0,9.0,85,0.00,,---,0.00,VWS V14.01,2013-10-27 13:43:00,
2013-10-27 09:48:00,38.0,33.9,29.90,West,262,5.0,9.0,85,0.00,,---,0.00,VWS V14.01,2013-10-27 13:48:00,
2013-10-27 09:53:00,38.1,34.0,29.90,West,262,5.0,9.0,85,0.00,,---,0.00,VWS V14.01,2013-10-27 13:53:00,
2013-10-27 09:58:00,38.2,33.8,29.90,West,262,5.0,9.0,84,0.00,,---,0.00,VWS V14.01,2013-10-27 13:58:00,
2013-10-27 10:00:00,38.4,34.0,29.90,West,262,6.0,9.0,84,0.00,,---,0.00,VWS V15.00,2013-10-27 14:00:00,
2013-10-27 10:03:00,38.5,34.1,29.90,West,262,4.0,6.0,84,0.00,,---,0.00,VWS V14.01,2013-10-27 14:03:00,
2013-10-27 10:08:00,38.7,34.0,29.89,West,260,5.0,8.0,83,0.00,,---,0.00,VWS V14.01,2013-10-27 14:08:00,
2013-10-27 10:13:00,38.8,34.1,29.90,WSW,246,1.0,8.0,83,0.00,,---,0.00,VWS V14.01,2013-10-27 14:13:00,
2013-10-27 10:18:00,38.9,34.2,29.90,WSW,246,4.0,8.0,83,0.00,,---,0.00,VWS V14.01,2013-10-27 14:18:00,
2013-10-27 10:23:00,39.1,34.1,29.90,WSW,244,5.0,8.0,82,0.00,,---,0.00,VWS V14.01,2013-10-27 14:23:00,
2013-10-27 10:28:00,39.2,33.9,29.90,WSW,245,6.0,8.0,81,0.00,,---,0.00,VWS V14.01,2013-10-27 14:28:00,
2013-10-27 10:30:00,39.3,33.7,29.90,WSW,251,5.0,8.0,80,0.00,,---,0.00,VWS V15.00,2013-10-27 14:30:00,
2013-10-27 10:33:00,39.3,33.7,29.90,WSW,251,5.0,6.0,80,0.00,,---,0.00,VWS V14.01,2013-10-27 14:33:00,
2013-10-27 10:38:00,39.4,33.8,29.89,WSW,251,2.0,6.0,80,0.00,,---,0.00,VWS V14.01,2013-10-27 14:38:00,
2013-10-27 10:43:00,39.5,33.8,29.90,WSW,251,6.0,7.0,80,0.00,,---,0.00,VWS V14.01,2013-10-27 14:43:00,
2013-10-27 10:48:00,39.6,33.6,29.90,WSW,250,6.0,9.0,79,0.00,,---,0.00,VWS V14.01,2013-10-27 14:48:00,
2013-10-27 10:53:00,39.9,33.9,29.90,WSW,252,10.0,12.0,79,0.00,,---,0.00,VWS V14.01,2013-10-27 14:53:00,
2013-10-27 10:58:00,40.0,33.1,29.90,WSW,248,8.0,13.0,76,0.00,,---,0.00,VWS V14.01,2013-10-27 14:58:00,
2013-10-27 11:00:00,40.0,33.7,29.90,WSW,250,10.0,13.0,78,0.00,,---,0.00,VWS V15.00,2013-10-27 15:00:00,
2013-10-27 11:03:00,40.0,33.4,29.90,WSW,254,9.0,11.0,77,0.00,,---,0.00,VWS V14.01,2013-10-27 15:03:00,
2013-10-27 11:08:00,39.9,33.0,29.90,WSW,248,13.0,13.0,76,0.00,,---,0.00,VWS V14.01,2013-10-27 15:08:00,
2013-10-27 11:13:00,39.9,33.0,29.90,West,262,13.0,16.0,76,0.00,,---,0.00,VWS V14.01,2013-10-27 15:13:00,
2013-10-27 11:18:00,40.0,32.4,29.90,WSW,258,13.0,16.0,74,0.00,,---,0.00,VWS V14.01,2013-10-27 15:18:00,
2013-10-27 11:23:00,40.1,31.8,29.90,West,264,9.0,16.0,72,0.00,,---,0.00,VWS V14.01,2013-10-27 15:23:00,
2013-10-27 11:28:00,40.2,32.6,29.90,West,275,6.0,16.0,74,0.00,,---,0.00,VWS V14.01,2013-10-27 15:28:00,
2013-10-27 11:30:00,40.3,32.3,29.90,WSW,258,10.0,16.0,73,0.00,,---,0.00,VWS V15.00,2013-10-27 15:30:00,
2013-10-27 11:33:00,40.3,32.3,29.90,WSW,258,10.0,11.0,73,0.00,,---,0.00,VWS V14.01,2013-10-27 15:33:00,
2013-10-27 11:38:00,40.3,32.7,29.90,WSW,257,9.0,13.0,74,0.00,,---,0.00,VWS V14.01,2013-10-27 15:38:00,
2013-10-27 11:43:00,40.5,32.9,29.90,West,260,9.0,13.0,74,0.00,,---,0.00,VWS V14.01,2013-10-27 15:43:00,
2013-10-27 11:48:00,40.5,32.9,29.90,West,260,10.0,14.0,74,0.00,,---,0.00,VWS V14.01,2013-10-27 15:48:00,
2013-10-27 11:53:00,40.5,32.5,29.90,WSW,256,9.0,14.0,73,0.00,,---,0.00,VWS V14.01,2013-10-27 15:53:00,
2013-10-27 11:58:00,40.5,32.5,29.89,West,269,7.0,14.0,73,0.00,,---,0.00,VWS V14.01,2013-10-27 15:58:00,
2013-10-27 12:00:00,40.5,32.9,29.89,West,269,7.0,14.0,74,0.00,,---,0.00,VWS V15.00,2013-10-27 16:00:00,
2013-10-27 12:03:00,40.5,32.9,29.89,WSW,256,6.0,8.0,74,0.00,,---,0.00,VWS V14.01,2013-10-27 16:03:00,
2013-10-27 12:08:00,40.6,33.0,29.89,WSW,250,6.0,8.0,74,0.00,,---,0.00,VWS V14.01,2013-10-27 16:08:00,
2013-10-27 12:13:00,40.7,33.1,29.90,West,260,7.0,9.0,74,0.00,,---,0.00,VWS V14.01,2013-10-27 16:13:00,
2013-10-27 12:18:00,40.7,32.7,29.90,WSW,243,7.0,10.0,73,0.00,,---,0.00,VWS V14.01,2013-10-27 16:18:00,
2013-10-27 12:23:00,40.6,32.3,29.90,West,260,8.0,10.0,72,0.00,,---,0.00,VWS V14.01,2013-10-27 16:23:00,
2013-10-27 12:28:00,40.6,32.3,29.90,WSW,254,7.0,12.0,72,0.00,,---,0.00,VWS V14.01,2013-10-27 16:28:00,
2013-10-27 12:30:00,40.7,32.7,29.90,WSW,239,8.0,12.0,73,0.00,,---,0.00,VWS V15.00,2013-10-27 16:30:00,
2013-10-27 12:34:00,40.7,32.4,29.90,WSW,249,7.0,11.0,72,0.00,,---,0.00,VWS V14.01,2013-10-27 16:34:00,
2013-10-27 12:39:00,40.9,32.9,29.89,WSW,246,5.0,11.0,73,0.00,,---,0.00,VWS V14.01,2013-10-27 16:39:00,
2013-10-27 12:44:00,40.7,32.4,29.89,WSW,248,8.0,11.0,72,0.00,,---,0.00,VWS V14.01,2013-10-27 16:44:00,
2013-10-27 12:49:00,40.7,32.7,29.89,WSW,246,5.0,11.0,73,0.00,,---,0.00,VWS V14.01,2013-10-27 16:49:00,
2013-10-27 12:54:00,40.8,32.8,29.89,SW,228,7.0,11.0,73,0.00,,---,0.00,VWS V14.01,2013-10-27 16:54:00,
2013-10-27 12:59:00,41.0,33.0,29.89,WSW,241,3.0,11.0,73,0.00,,---,0.00,VWS V14.01,2013-10-27 16:59:00,
2013-10-27 13:00:00,41.0,33.0,29.89,WSW,240,5.0,11.0,73,0.00,,---,0.00,VWS V15.00,2013-10-27 17:00:00,
2013-10-27 13:04:00,41.1,33.1,29.89,WSW,247,4.0,6.0,73,0.00,,---,0.00,VWS V14.01,2013-10-27 17:04:00,
2013-10-27 13:09:00,41.2,33.9,29.88,SW,228,10.0,10.0,75,0.00,,---,0.00,VWS V14.01,2013-10-27 17:09:00,
2013-10-27 13:14:00,41.2,34.5,29.88,SW,223,12.0,12.0,77,0.00,,---,0.00,VWS V14.01,2013-10-27 17:14:00,
2013-10-27 13:19:00,41.1,34.5,29.88,SSW,197,1.0,12.0,77,0.00,,---,0.00,VWS V14.01,2013-10-27 17:19:00,
2013-10-27 13:24:00,41.1,34.1,29.88,SSW,212,10.0,14.0,76,0.00,,---,0.00,VWS V14.01,2013-10-27 17:24:00,
2013-10-27 13:29:00,41.2,34.9,29.88,SW,220,13.0,16.0,78,0.00,,---,0.00,VWS V14.01,2013-10-27 17:29:00,
2013-10-27 13:30:00,41.2,35.2,29.87,SW,222,15.0,16.0,79,0.00,,---,0.00,VWS V15.00,2013-10-27 17:30:00,
2013-10-27 13:34:00,41.1,35.1,29.87,SW,231,9.0,16.0,79,0.00,,---,0.00,VWS V14.01,2013-10-27 17:34:00,
2013-10-27 13:39:00,41.0,35.3,29.87,WSW,238,9.0,16.0,80,0.00,,---,0.00,VWS V14.01,2013-10-27 17:39:00,
2013-10-27 13:44:00,40.9,35.2,29.87,SW,235,10.0,16.0,80,0.00,,---,0.00,VWS V14.01,2013-10-27 17:44:00,
2013-10-27 13:49:00,40.8,35.1,29.87,SW,235,9.0,16.0,80,0.00,,---,0.00,VWS V14.01,2013-10-27 17:49:00,
2013-10-27 13:54:00,40.6,34.6,29.87,SW,221,9.0,16.0,79,0.00,,---,0.00,VWS V14.01,2013-10-27 17:54:00,
2013-10-27 13:59:00,40.6,35.2,29.86,WSW,239,9.0,17.0,81,0.00,,---,0.00,VWS V14.01,2013-10-27 17:59:00,
2013-10-27 14:00:00,40.5,35.5,29.86,SW,233,14.0,17.0,82,0.00,,---,0.00,VWS V15.00,2013-10-27 18:00:00,
2013-10-27 14:04:00,40.4,35.3,29.86,SW,225,11.0,14.0,82,0.00,,---,0.00,VWS V14.01,2013-10-27 18:04:00,
2013-10-27 14:09:00,40.5,35.5,29.86,SW,236,6.0,17.0,82,0.00,,---,0.00,VWS V14.01,2013-10-27 18:09:00,
2013-10-27 14:14:00,40.4,35.7,29.86,SSW,198,12.0,20.0,83,0.00,,---,0.00,VWS V14.01,2013-10-27 18:14:00,
2013-10-27 14:19:00,40.5,36.0,29.86,SW,222,6.0,20.0,84,0.00,,---,0.00,VWS V14.01,2013-10-27 18:19:00,
2013-10-27 14:24:00,40.5,36.0,29.86,WSW,237,7.0,20.0,84,0.00,,---,0.00,VWS V14.01,2013-10-27 18:24:00,
2013-10-27 14:29:00,40.5,36.3,29.85,SSW,195,15.0,20.0,85,0.00,,---,0.00,VWS V14.01,2013-10-27 18:29:00,
2013-10-27 14:30:00,40.4,36.3,29.85,SW,221,13.0,20.0,85,0.00,,---,0.00,VWS V15.00,2013-10-27 18:30:00,
2013-10-27 14:34:00,40.4,36.3,29.85,SW,214,13.0,16.0,85,0.00,,---,0.00,VWS V14.01,2013-10-27 18:34:00,
2013-10-27 14:39:00,40.2,36.3,29.85,SW,217,9.0,17.0,86,0.00,,---,0.00,VWS V14.01,2013-10-27 18:39:00,
2013-10-27 14:44:00,40.1,36.5,29.85,SSW,199,12.0,17.0,87,0.00,,---,0.00,VWS V14.01,2013-10-27 18:44:00,
2013-10-27 14:49:00,40.1,36.5,29.85,SW,223,2.0,17.0,87,0.00,,---,0.00,VWS V14.01,2013-10-27 18:49:00,
2013-10-27 14:54:00,40.2,36.7,29.85,SW,218,7.0,17.0,87,0.00,,---,0.00,VWS V14.01,2013-10-27 18:54:00,
2013-10-27 14:59:00,40.3,37.0,29.84,SW,233,4.0,17.0,88,0.00,,---,0.00,VWS V14.01,2013-10-27 18:59:00,
2013-10-27 15:00:00,40.4,37.1,29.84,SSW,208,7.0,17.0,88,0.00,,---,0.00,VWS V15.00,2013-10-27 19:00:00,
2013-10-27 15:04:00,40.3,37.0,29.84,SW,214,9.0,12.0,88,0.00,,---,0.00,VWS V14.01,2013-10-27 19:04:00,
2013-10-27 15:09:00,40.2,36.7,29.84,SW,215,9.0,15.0,87,0.00,,---,0.00,VWS V14.01,2013-10-27 19:09:00,
2013-10-27 15:14:00,40.4,37.1,29.84,SW,229,6.0,15.0,88,0.00,,---,0.00,VWS V14.01,2013-10-27 19:14:00,
2013-10-27 15:19:00,40.4,37.1,29.84,SW,223,11.0,15.0,88,0.00,,---,0.00,VWS V14.01,2013-10-27 19:19:00,
2013-10-27 15:24:00,40.4,37.1,29.84,WSW,247,3.0,15.0,88,0.00,,---,0.00,VWS V14.01,2013-10-27 19:24:00,
2013-10-27 15:29:00,40.3,37.3,29.84,SW,227,8.0,15.0,89,0.00,,---,0.00,VWS V14.01,2013-10-27 19:29:00,
2013-10-27 15:30:00,40.3,37.3,29.84,SSW,199,8.0,15.0,89,0.00,,---,0.00,VWS V15.00,2013-10-27 19:30:00,
2013-10-27 15:34:00,40.2,37.2,29.84,WSW,243,5.0,17.0,89,0.00,,---,0.00,VWS V14.01,2013-10-27 19:34:00,
2013-10-27 15:39:00,40.2,37.5,29.84,SW,236,9.0,17.0,90,0.00,,---,0.00,VWS V14.01,2013-10-27 19:39:00,
2013-10-27 15:44:00,40.1,37.1,29.84,SW,231,9.0,17.0,89,0.00,,---,0.00,VWS V14.01,2013-10-27 19:44:00,
2013-10-27 15:49:00,40.1,37.1,29.84,SW,234,7.0,17.0,89,0.00,,---,0.00,VWS V14.01,2013-10-27 19:49:00,
2013-10-27 15:54:00,40.1,37.4,29.84,SSW,202,2.0,17.0,90,0.00,,---,0.00,VWS V14.01,2013-10-27 19:54:00,
2013-10-27 15:59:00,40.0,37.3,29.84,SW,229,4.0,17.0,90,0.00,,---,0.00,VWS V14.01,2013-10-27 19:59:00,
2013-10-27 16:00:00,40.0,37.3,29.84,SW,230,15.0,17.0,90,0.01,,---,0.01,VWS V15.00,2013-10-27 20:00:00,
2013-10-27 16:04:00,39.9,37.2,29.84,SW,232,5.0,15.0,90,0.01,,---,0.01,VWS V14.01,2013-10-27 20:04:00,
2013-10-27 16:09:00,39.8,37.4,29.83,WSW,251,6.0,15.0,91,0.01,,---,0.01,VWS V14.01,2013-10-27 20:09:00,
2013-10-27 16:14:00,39.6,37.2,29.84,WSW,248,6.0,15.0,91,0.02,,---,0.02,VWS V14.01,2013-10-27 20:14:00,
2013-10-27 16:19:00,39.6,37.2,29.84,SW,231,7.0,15.0,91,0.02,,---,0.02,VWS V14.01,2013-10-27 20:19:00,
2013-10-27 16:24:00,39.5,37.4,29.83,SW,227,5.0,15.0,92,0.02,,---,0.02,VWS V14.01,2013-10-27 20:24:00,
2013-10-27 16:29:00,39.3,37.2,29.83,WSW,237,6.0,15.0,92,0.02,,---,0.02,VWS V14.01,2013-10-27 20:29:00,
2013-10-27 16:30:00,39.3,37.2,29.83,SW,229,7.0,15.0,92,0.02,,---,0.02,VWS V15.00,2013-10-27 20:30:00,
2013-10-27 16:34:00,39.3,37.2,29.83,WSW,252,6.0,8.0,92,0.02,,---,0.02,VWS V14.01,2013-10-27 20:34:00,
2013-10-27 16:39:00,39.4,37.3,29.83,SW,221,2.0,9.0,92,0.02,,---,0.02,VWS V14.01,2013-10-27 20:39:00,
2013-10-27 16:44:00,39.5,37.4,29.83,SW,221,3.0,9.0,92,0.02,,---,0.02,VWS V14.01,2013-10-27 20:44:00,
2013-10-27 16:49:00,39.5,37.7,29.83,SW,219,4.0,9.0,93,0.02,,---,0.02,VWS V14.01,2013-10-27 20:49:00,
2013-10-27 16:55:00,39.7,37.8,29.83,SSW,196,3.0,9.0,93,0.02,,---,0.02,VWS V14.01,2013-10-27 20:55:00,
2013-10-27 17:00:00,39.7,37.8,29.83,SSW,196,2.0,9.0,93,0.02,,---,0.02,VWS V14.01,2013-10-27 21:00:00,
2013-10-27 17:05:00,39.8,38.2,29.83,SSW,196,1.0,6.0,94,0.01,,---,0.02,VWS V14.01,2013-10-27 21:05:00,
2013-10-27 17:10:00,39.9,38.3,29.83,SSW,196,5.0,6.0,94,0.01,,---,0.02,VWS V14.01,2013-10-27 21:10:00,
2013-10-27 17:15:00,39.9,38.3,29.83,SSW,196,3.0,6.0,94,0.01,,---,0.02,VWS V14.01,2013-10-27 21:15:00,
2013-10-27 17:20:00,40.0,38.4,29.83,SSW,197,0.0,6.0,94,0.01,,---,0.02,VWS V14.01,2013-10-27 21:20:00,
2013-10-27 17:25:00,40.0,38.4,29.83,SSW,197,0.0,6.0,94,0.01,,---,0.02,VWS V14.01,2013-10-27 21:25:00,
2013-10-27 17:30:00,40.1,38.5,29.83,SSW,196,4.0,6.0,94,0.01,,---,0.02,VWS V14.01,2013-10-27 21:30:00,
2013-10-27 17:35:00,40.2,38.6,29.83,SSW,209,4.0,7.0,94,0.00,,---,0.02,VWS V14.01,2013-10-27 21:35:00,
2013-10-27 17:40:00,40.3,38.7,29.83,SW,224,3.0,7.0,94,0.00,,---,0.02,VWS V14.01,2013-10-27 21:40:00,
2013-10-27 17:45:00,40.4,38.8,29.83,SW,225,6.0,7.0,94,0.00,,---,0.02,VWS V14.01,2013-10-27 21:45:00,
2013-10-27 17:50:00,40.7,39.1,29.83,SW,225,4.0,9.0,94,0.01,,---,0.03,VWS V14.01,2013-10-27 21:50:00,
2013-10-27 17:55:00,40.9,39.0,29.83,WSW,248,9.0,10.0,93,0.01,,---,0.03,VWS V14.01,2013-10-27 21:55:00,
2013-10-27 18:00:00,41.2,39.3,29.84,WSW,244,11.0,11.0,93,0.01,,---,0.03,VWS V14.01,2013-10-27 22:00:00,
2013-10-27 18:05:00,41.4,39.2,29.84,WSW,238,9.0,13.0,92,0.02,,---,0.04,VWS V14.01,2013-10-27 22:05:00,
2013-10-27 18:10:00,41.4,38.7,29.84,West,263,17.0,21.0,90,0.02,,---,0.04,VWS V14.01,2013-10-27 22:10:00,
2013-10-27 18:15:00,41.5,38.5,29.84,WSW,255,11.0,21.0,89,0.02,,---,0.04,VWS V14.01,2013-10-27 22:15:00,
2013-10-27 18:20:00,41.6,38.6,29.84,West,264,10.0,21.0,89,0.03,,---,0.05,VWS V14.01,2013-10-27 22:20:00,
2013-10-27 18:25:00,41.6,38.9,29.84,West,264,12.0,21.0,90,0.03,,---,0.05,VWS V14.01,2013-10-27 22:25:00,
2013-10-27 18:30:00,41.6,38.9,29.84,WSW,257,11.0,21.0,90,0.03,,---,0.05,VWS V14.01,2013-10-27 22:30:00,
2013-10-27 18:35:00,41.4,38.7,29.84,WNW,287,18.0,18.0,90,0.04,,---,0.06,VWS V14.01,2013-10-27 22:35:00,
2013-10-27 18:40:00,41.3,38.0,29.85,WNW,287,14.0,18.0,88,0.04,,---,0.06,VWS V14.01,2013-10-27 22:40:00,
2013-10-27 18:45:00,41.2,38.2,29.85,West,279,12.0,18.0,89,0.04,,---,0.06,VWS V14.01,2013-10-27 22:45:00,
2013-10-27 18:50:00,41.3,38.6,29.85,WNW,283,13.0,18.0,90,0.05,,---,0.07,VWS V14.01,2013-10-27 22:50:00,
2013-10-27 18:55:00,41.4,38.4,29.85,West,281,16.0,18.0,89,0.05,,---,0.07,VWS V14.01,2013-10-27 22:55:00,
2013-10-27 19:00:00,41.2,38.5,29.85,WNW,299,12.0,18.0,90,0.06,,---,0.08,VWS V14.01,2013-10-27 23:00:00,
2013-10-27 19:05:00,41.1,38.4,29.85,WNW,285,10.0,13.0,90,0.05,,---,0.08,VWS V14.01,2013-10-27 23:05:00,
2013-10-27 19:10:00,41.0,38.6,29.86,WNW,300,11.0,15.0,91,0.05,,---,0.08,VWS V14.01,2013-10-27 23:10:00,
2013-10-27 19:15:00,40.9,38.5,29.86,WNW,298,12.0,15.0,91,0.05,,---,0.08,VWS V14.01,2013-10-27 23:15:00,
2013-10-27 19:20:00,40.9,38.5,29.86,WNW,285,8.0,15.0,91,0.06,,---,0.09,VWS V14.01,2013-10-27 23:20:00,
2013-10-27 19:25:00,40.9,38.8,29.86,West,278,9.0,15.0,92,0.07,,---,0.10,VWS V14.01,2013-10-27 23:25:00,
2013-10-27 19:30:00,40.9,38.8,29.86,West,269,11.0,15.0,92,0.07,,---,0.10,VWS V14.01,2013-10-27 23:30:00,
2013-10-27 19:35:00,41.0,38.9,29.86,WSW,248,11.0,11.0,92,0.04,,---,0.10,VWS V14.01,2013-10-27 23:35:00,
2013-10-27 19:40:00,41.1,39.0,29.86,WSW,248,11.0,14.0,92,0.04,,---,0.10,VWS V14.01,2013-10-27 23:40:00,
2013-10-27 19:45:00,41.2,39.1,29.86,WSW,244,9.0,15.0,92,0.04,,---,0.10,VWS V14.01,2013-10-27 23:45:00,
2013-10-27 19:50:00,41.2,38.8,29.86,WSW,242,13.0,16.0,91,0.05,,---,0.11,VWS V14.01,2013-10-27 23:50:00,
2013-10-27 19:55:00,41.3,38.6,29.86,WSW,250,7.0,16.0,90,0.05,,---,0.11,VWS V14.01,2013-10-27 23:55:00,
2013-10-27 20:00:00,41.2,38.8,29.86,SW,231,10.0,16.0,91,0.05,,---,0.11,VWS V14.01,2013-10-28 00:00:00,
2013-10-27 20:06:00,41.2,39.1,29.86,WSW,244,8.0,11.0,92,0.03,,---,0.11,VWS V14.01,2013-10-28 00:06:00,
2013-10-27 20:11:00,41.2,38.8,29.86,WSW,254,7.0,11.0,91,0.03,,---,0.11,VWS V14.01,2013-10-28 00:11:00,
2013-10-27 20:16:00,41.5,39.1,29.86,WSW,257,9.0,11.0,91,0.04,,---,0.12,VWS V14.01,2013-10-28 00:16:00,
2013-10-27 20:21:00,41.8,39.4,29.86,WSW,256,5.0,11.0,91,0.04,,---,0.12,VWS V14.01,2013-10-28 00:21:00,
2013-10-27 20:26:00,41.9,39.5,29.86,West,277,9.0,11.0,91,0.04,,---,0.12,VWS V14.01,2013-10-28 00:26:00,
2013-10-27 20:30:00,42.2,39.8,29.86,WNW,289,6.0,11.0,91,0.04,,---,0.12,VWS V15.00,2013-10-28 00:30:00,
2013-10-27 20:31:00,42.1,39.7,29.86,WNW,291,8.0,11.0,91,0.04,,---,0.12,VWS V14.01,2013-10-28 00:31:00,
2013-10-27 20:36:00,42.2,39.8,29.86,WNW,300,10.0,12.0,91,0.03,,---,0.13,VWS V14.01,2013-10-28 00:36:00,
2013-10-27 20:41:00,42.2,39.8,29.86,WNW,300,9.0,12.0,91,0.03,,---,0.13,VWS V14.01,2013-10-28 00:41:00,
2013-10-27 20:46:00,42.4,39.4,29.87,WNW,292,9.0,12.0,89,0.03,,---,0.13,VWS V14.01,2013-10-28 00:46:00,
2013-10-27 20:51:00,42.5,38.9,29.87,WNW,285,8.0,12.0,87,0.03,,---,0.13,VWS V14.01,2013-10-28 00:51:00,
2013-10-27 20:56:00,42.5,38.9,29.87,WNW,293,9.0,12.0,87,0.03,,---,0.13,VWS V14.01,2013-10-28 00:56:00,
2013-10-27 21:00:00,42.5,38.6,29.87,WNW,298,7.0,14.0,86,0.03,,---,0.13,VWS V15.00,2013-10-28 01:00:00,
2013-10-27 21:01:00,42.5,38.6,29.87,West,278,12.0,14.0,86,0.03,,---,0.13,VWS V14.01,2013-10-28 01:01:00,
2013-10-27 21:06:00,42.4,38.2,29.87,WNW,295,7.0,11.0,85,0.02,,---,0.13,VWS V14.01,2013-10-28 01:06:00,
2013-10-27 21:11:00,42.3,38.4,29.87,West,260,5.0,11.0,86,0.02,,---,0.13,VWS V14.01,2013-10-28 01:11:00,
2013-10-27 21:16:00,42.2,38.3,29.87,West,265,7.0,11.0,86,0.02,,---,0.13,VWS V14.01,2013-10-28 01:16:00,
2013-10-27 21:21:00,42.2,38.6,29.88,West,266,6.0,11.0,87,0.02,,---,0.13,VWS V14.01,2013-10-28 01:21:00,
2013-10-27 21:26:00,42.2,38.3,29.88,West,268,8.0,11.0,86,0.02,,---,0.13,VWS V14.01,2013-10-28 01:26:00,
2013-10-27 21:30:00,42.2,38.3,29.88,West,266,8.0,11.0,86,0.02,,---,0.13,VWS V15.00,2013-10-28 01:30:00,
2013-10-27 21:31:00,42.2,38.3,29.88,West,266,7.0,11.0,86,0.02,,---,0.13,VWS V14.01,2013-10-28 01:31:00,
2013-10-27 21:36:00,42.2,38.3,29.88,West,275,8.0,9.0,86,0.01,,---,0.13,VWS V14.01,2013-10-28 01:36:00,
2013-10-27 21:41:00,42.3,38.7,29.89,West,275,6.0,9.0,87,0.01,,---,0.13,VWS V14.01,2013-10-28 01:41:00,
2013-10-27 21:46:00,42.2,38.3,29.89,WNW,291,7.0,11.0,86,0.01,,---,0.13,VWS V14.01,2013-10-28 01:46:00,
2013-10-27 21:51:00,42.2,38.3,29.89,West,281,6.0,11.0,86,0.01,,---,0.13,VWS V14.01,2013-10-28 01:51:00,
2013-10-27 21:56:00,42.3,38.1,29.89,WNW,287,10.0,11.0,85,0.01,,---,0.13,VWS V14.01,2013-10-28 01:56:00,
2013-10-27 22:00:00,42.3,37.8,29.89,NW,305,11.0,13.0,84,0.01,,---,0.13,VWS V15.00,2013-10-28 02:00:00,
2013-10-27 22:01:00,42.3,37.8,29.89,WNW,296,11.0,11.0,84,0.01,,---,0.13,VWS V14.01,2013-10-28 02:01:00,
2013-10-27 22:06:00,42.4,37.6,29.89,WNW,295,12.0,14.0,83,0.00,,---,0.13,VWS V14.01,2013-10-28 02:06:00,
2013-10-27 22:11:00,42.4,37.3,29.90,WNW,299,13.0,14.0,82,0.00,,---,0.13,VWS V14.01,2013-10-28 02:11:00,
2013-10-27 22:16:00,42.3,36.9,29.90,NW,308,13.0,16.0,81,0.00,,---,0.13,VWS V14.01,2013-10-28 02:16:00,
2013-10-27 22:21:00,42.2,37.4,29.90,WNW,300,14.0,16.0,83,0.00,,---,0.13,VWS V14.01,2013-10-28 02:21:00,
2013-10-27 22:26:00,42.1,37.0,29.90,WNW,289,12.0,16.0,82,0.00,,---,0.13,VWS V14.01,2013-10-28 02:26:00,
2013-10-27 22:30:00,42.1,37.0,29.90,WNW,293,13.0,16.0,82,0.00,,---,0.13,VWS V15.00,2013-10-28 02:30:00,
2013-10-27 22:31:00,42.1,37.0,29.90,WNW,300,13.0,16.0,82,0.00,,---,0.13,VWS V14.01,2013-10-28 02:31:00,
2013-10-27 22:36:00,42.0,36.9,29.90,WNW,290,14.0,16.0,82,0.00,,---,0.13,VWS V14.01,2013-10-28 02:36:00,
2013-10-27 22:41:00,42.0,36.6,29.91,WNW,295,12.0,16.0,81,0.00,,---,0.13,VWS V14.01,2013-10-28 02:41:00,
2013-10-27 22:46:00,42.1,36.7,29.91,WNW,296,13.0,16.0,81,0.00,,---,0.13,VWS V14.01,2013-10-28 02:46:00,
2013-10-27 22:51:00,42.3,36.6,29.91,WNW,298,12.0,17.0,80,0.00,,---,0.13,VWS V14.01,2013-10-28 02:51:00,
2013-10-27 22:56:00,42.3,36.6,29.91,WNW,296,11.0,17.0,80,0.00,,---,0.13,VWS V14.01,2013-10-28 02:56:00,
2013-10-27 23:00:00,42.3,36.6,29.91,NW,308,16.0,19.0,80,0.00,,---,0.13,VWS V15.00,2013-10-28 03:00:00,
2013-10-27 23:01:00,42.3,36.6,29.91,NW,315,17.0,19.0,80,0.00,,---,0.13,VWS V14.01,2013-10-28 03:01:00,
2013-10-27 23:06:00,42.2,36.5,29.91,NW,309,14.0,19.0,80,0.00,,---,0.13,VWS V14.01,2013-10-28 03:06:00,
2013-10-27 23:11:00,42.2,37.1,29.92,NW,306,14.0,19.0,82,0.00,,---,0.13,VWS V14.01,2013-10-28 03:11:00,
2013-10-27 23:16:00,42.0,36.9,29.92,WNW,289,16.0,19.0,82,0.00,,---,0.13,VWS V14.01,2013-10-28 03:16:00,
2013-10-27 23:21:00,41.9,36.8,29.92,NW,308,15.0,19.0,82,0.00,,---,0.13,VWS V14.01,2013-10-28 03:21:00,
2013-10-27 23:26:00,41.8,37.0,29.92,WNW,299,16.0,19.0,83,0.00,,---,0.13,VWS V14.01,2013-10-28 03:26:00,
2013-10-27 23:30:00,41.6,36.8,29.92,WNW,302,13.0,19.0,83,0.00,,---,0.13,VWS V15.00,2013-10-28 03:30:00,
2013-10-27 23:31:00,41.6,36.8,29.92,WNW,291,15.0,19.0,83,0.00,,---,0.13,VWS V14.01,2013-10-28 03:31:00,
2013-10-27 23:36:00,41.6,37.1,29.92,WNW,301,19.0,19.0,84,0.00,,---,0.13,VWS V14.01,2013-10-28 03:36:00,
2013-10-27 23:41:00,41.6,37.1,29.92,NW,305,13.0,19.0,84,0.00,,---,0.13,VWS V14.01,2013-10-28 03:41:00,
2013-10-27 23:46:00,41.6,37.1,29.92,WNW,300,16.0,19.0,84,0.00,,---,0.13,VWS V14.01,2013-10-28 03:46:00,
2013-10-27 23:51:00,41.6,37.4,29.93,WNW,297,13.0,19.0,85,0.00,,---,0.13,VWS V14.01,2013-10-28 03:51:00,
2013-10-27 23:56:00,41.6,37.7,29.93,NW,307,17.0,19.0,86,0.00,,---,0.13,VWS V14.01,2013-10-28 03:56:00,